SLM993 EHAM-SMJP

Flight info

Callsign SLM993
Flight time N/A
Altitude 36000
Route IDRID L980 LOGAN DCT SAM N19 ADKIK DCT JOZMA DCT GAPLI/M079F360 DCT OMOKO DCT 45N020W 38N030W/M079F380 33N035W 28N040W 24N045W DCT NEZBT/N0453F400 DCT 16N050W 0927N05300W 0730N05400W DCT TODOL
Aircraft A343/H-SDE2E3FGHIJ4J5M1RWXY/LB1D1

Departure

Time N/A
Airport Amsterdam Airport Schiphol (EHAM)

Arrival

Time 2026-04-27 20:24
Airport Johan Adolf Pengel International Airport (SMJP)
Time Latitude Longitude Altitude Speed Heading
2026-04-27 18:24 18.10347 -48.93401 38306 ft 443 kts 214°
2026-04-27 18:25 18.07707 -48.95085 38409 ft 444 kts 214°
2026-04-27 18:25 18.05062 -48.96771 38537 ft 445 kts 214°
2026-04-27 18:25 18.02415 -48.98458 38707 ft 445 kts 214°
2026-04-27 18:25 17.99721 -49.00069 38866 ft 447 kts 210°
2026-04-27 18:26 17.96946 -49.01537 39027 ft 447 kts 210°
2026-04-27 18:26 17.94155 -49.02974 39182 ft 446 kts 209°
2026-04-27 18:26 17.91361 -49.04391 39316 ft 446 kts 209°
2026-04-27 18:26 17.88563 -49.05800 39458 ft 446 kts 209°
2026-04-27 18:27 17.85767 -49.07205 39586 ft 445 kts 209°
2026-04-27 18:27 17.82970 -49.08611 39691 ft 446 kts 209°
2026-04-27 18:27 17.80174 -49.10019 39858 ft 445 kts 209°
2026-04-27 18:27 17.77424 -49.11404 40002 ft 444 kts 209°
2026-04-27 18:28 17.71839 -49.14222 40105 ft 447 kts 209°
2026-04-27 18:28 17.66235 -49.17048 40102 ft 446 kts 209°
2026-04-27 18:29 17.60648 -49.19862 40102 ft 446 kts 208°
2026-04-27 18:29 17.55053 -49.22679 40103 ft 446 kts 208°
2026-04-27 18:30 17.49451 -49.25497 40102 ft 447 kts 208°
2026-04-27 18:30 17.43851 -49.28313 40102 ft 446 kts 208°
2026-04-27 18:31 17.38253 -49.31125 40098 ft 447 kts 208°
2026-04-27 18:31 17.32641 -49.33943 40100 ft 447 kts 208°
2026-04-27 18:32 17.27025 -49.36760 40097 ft 448 kts 208°
2026-04-27 18:32 17.21410 -49.39575 40097 ft 448 kts 208°
2026-04-27 18:33 17.15796 -49.42388 40091 ft 447 kts 208°
2026-04-27 18:33 17.10175 -49.45203 40097 ft 448 kts 208°
2026-04-27 18:34 17.05503 -49.47541 40097 ft 448 kts 208°
2026-04-27 18:34 16.99875 -49.50355 40094 ft 448 kts 208°
2026-04-27 18:35 16.93334 -49.53624 40095 ft 448 kts 208°
2026-04-27 18:35 16.87704 -49.56435 40091 ft 449 kts 208°
2026-04-27 18:36 16.82982 -49.58792 40092 ft 449 kts 208°
2026-04-27 18:36 16.77342 -49.61605 40091 ft 449 kts 208°
2026-04-27 18:37 16.71746 -49.64394 40089 ft 449 kts 208°
2026-04-27 18:37 16.66105 -49.67204 40089 ft 449 kts 208°
2026-04-27 18:38 16.60467 -49.70010 40086 ft 449 kts 208°
2026-04-27 18:38 16.54826 -49.72816 40089 ft 449 kts 208°
2026-04-27 18:39 16.49190 -49.75618 40086 ft 449 kts 208°
2026-04-27 18:39 16.43557 -49.78416 40082 ft 449 kts 208°
2026-04-27 18:40 16.37914 -49.81218 40086 ft 450 kts 208°
2026-04-27 18:40 16.32263 -49.84022 40081 ft 450 kts 208°
2026-04-27 18:41 16.26611 -49.86825 40080 ft 450 kts 208°
2026-04-27 18:41 16.20959 -49.89625 40080 ft 450 kts 208°
2026-04-27 18:42 16.16258 -49.91953 40083 ft 450 kts 207°
2026-04-27 18:42 16.09642 -49.95228 40077 ft 451 kts 207°
2026-04-27 18:43 16.04015 -49.98011 40078 ft 451 kts 207°
2026-04-27 18:43 15.98353 -50.00806 40077 ft 451 kts 207°
2026-04-27 18:44 15.92647 -50.03515 40075 ft 451 kts 206°
2026-04-27 18:44 15.86906 -50.06194 40075 ft 452 kts 206°
2026-04-27 18:45 15.81175 -50.08880 40072 ft 452 kts 206°
2026-04-27 18:45 15.75447 -50.11575 40075 ft 452 kts 206°
2026-04-27 18:46 15.69720 -50.14274 40071 ft 452 kts 206°
2026-04-27 18:46 15.63978 -50.16977 40070 ft 454 kts 206°
2026-04-27 18:47 15.58226 -50.19683 40070 ft 454 kts 206°
2026-04-27 18:47 15.52470 -50.22388 40069 ft 453 kts 206°
2026-04-27 18:48 15.46726 -50.25087 40066 ft 453 kts 206°
2026-04-27 18:48 15.40973 -50.27788 40067 ft 454 kts 206°
2026-04-27 18:49 15.35212 -50.30491 40067 ft 455 kts 206°
2026-04-27 18:49 15.29450 -50.33193 40067 ft 454 kts 206°
2026-04-27 18:50 15.23688 -50.35893 40064 ft 455 kts 206°
2026-04-27 18:50 15.17919 -50.38595 40064 ft 455 kts 206°
2026-04-27 18:51 15.12150 -50.41296 40061 ft 456 kts 206°
2026-04-27 18:51 15.06414 -50.43979 40061 ft 455 kts 206°
2026-04-27 18:52 15.00640 -50.46678 40061 ft 455 kts 206°
2026-04-27 18:53 14.91979 -50.50724 40060 ft 456 kts 206°
2026-04-27 18:53 14.86197 -50.53424 40060 ft 456 kts 206°
2026-04-27 18:54 14.80410 -50.56123 40059 ft 456 kts 206°
2026-04-27 18:54 14.74623 -50.58822 40056 ft 456 kts 206°
2026-04-27 18:55 14.68832 -50.61520 40056 ft 457 kts 206°
2026-04-27 18:55 14.63038 -50.64219 40054 ft 457 kts 206°
2026-04-27 18:56 14.57238 -50.66919 40053 ft 457 kts 206°
2026-04-27 18:56 14.51440 -50.69616 40050 ft 457 kts 206°
2026-04-27 18:57 14.45630 -50.72317 40044 ft 457 kts 206°
2026-04-27 18:57 14.39816 -50.75018 40047 ft 459 kts 206°
2026-04-27 18:58 14.33999 -50.77720 40048 ft 459 kts 206°
2026-04-27 18:58 14.28210 -50.80406 40049 ft 459 kts 206°
2026-04-27 18:59 14.22386 -50.83108 40048 ft 459 kts 206°
2026-04-27 18:59 14.16564 -50.85807 40049 ft 459 kts 206°
2026-04-27 19:00 14.10740 -50.88505 40050 ft 459 kts 206°
2026-04-27 19:00 14.04914 -50.91203 40047 ft 459 kts 206°
2026-04-27 19:01 13.99091 -50.93898 40046 ft 459 kts 206°
2026-04-27 19:01 13.93260 -50.96596 40044 ft 459 kts 206°
2026-04-27 19:02 13.87419 -50.99296 40044 ft 461 kts 205°
2026-04-27 19:02 13.81565 -51.02001 40043 ft 461 kts 206°
2026-04-27 19:03 13.75711 -51.04704 40041 ft 461 kts 206°
2026-04-27 19:03 13.69851 -51.07409 40042 ft 461 kts 206°
2026-04-27 19:04 13.63997 -51.10111 40039 ft 462 kts 206°
2026-04-27 19:04 13.58126 -51.12816 40041 ft 462 kts 205°
2026-04-27 19:05 13.52259 -51.15519 40039 ft 462 kts 206°
2026-04-27 19:05 13.46391 -51.18221 40039 ft 462 kts 205°
2026-04-27 19:06 13.40559 -51.20906 40035 ft 463 kts 205°
2026-04-27 19:06 13.34677 -51.23611 40034 ft 463 kts 205°
2026-04-27 19:07 13.28792 -51.26317 40035 ft 464 kts 205°
2026-04-27 19:07 13.22903 -51.29023 40034 ft 463 kts 205°
2026-04-27 19:08 13.17007 -51.31731 40032 ft 463 kts 205°
2026-04-27 19:08 13.11112 -51.34437 40027 ft 464 kts 205°
2026-04-27 19:09 13.05219 -51.37141 40031 ft 464 kts 205°
2026-04-27 19:09 12.99320 -51.39846 40028 ft 464 kts 205°
2026-04-27 19:10 12.93430 -51.42546 40031 ft 464 kts 205°
2026-04-27 19:10 12.87537 -51.45246 40029 ft 465 kts 205°
2026-04-27 19:11 12.81625 -51.47953 40030 ft 465 kts 204°
2026-04-27 19:11 12.75718 -51.50655 40025 ft 465 kts 204°
2026-04-27 19:12 12.69848 -51.53340 40024 ft 465 kts 204°
2026-04-27 19:12 12.63943 -51.56040 40026 ft 465 kts 204°
2026-04-27 19:13 12.58020 -51.58746 40020 ft 466 kts 204°
2026-04-27 19:13 12.52098 -51.61450 40020 ft 466 kts 204°
2026-04-27 19:14 12.46179 -51.64152 40020 ft 466 kts 204°
2026-04-27 19:14 12.40259 -51.66853 40021 ft 466 kts 204°
2026-04-27 19:15 12.34341 -51.69552 40019 ft 466 kts 204°
2026-04-27 19:15 12.28404 -51.72257 40023 ft 468 kts 204°
2026-04-27 19:16 12.22458 -51.74966 40022 ft 468 kts 204°
2026-04-27 19:16 12.16517 -51.77671 40017 ft 468 kts 204°
2026-04-27 19:17 12.10575 -51.80375 40018 ft 467 kts 204°
2026-04-27 19:17 12.04624 -51.83082 40016 ft 468 kts 204°
2026-04-27 19:18 11.98671 -51.85789 40016 ft 468 kts 204°
2026-04-27 19:18 11.92717 -51.88494 40016 ft 469 kts 204°
2026-04-27 19:19 11.86761 -51.91200 40016 ft 468 kts 204°
2026-04-27 19:19 11.80808 -51.93903 40008 ft 468 kts 203°
2026-04-27 19:20 11.74844 -51.96609 40010 ft 469 kts 203°
2026-04-27 19:20 11.68881 -51.99313 40009 ft 469 kts 203°
2026-04-27 19:21 11.63106 -52.01931 40013 ft 469 kts 204°
2026-04-27 19:21 11.57168 -52.04623 40010 ft 469 kts 203°
2026-04-27 19:22 11.51205 -52.07323 40008 ft 469 kts 203°
2026-04-27 19:22 11.46248 -52.09567 40010 ft 469 kts 204°
2026-04-27 19:23 11.40281 -52.12268 40010 ft 469 kts 203°
2026-04-27 19:23 11.34320 -52.14964 40011 ft 469 kts 203°
2026-04-27 19:24 11.28357 -52.17660 40008 ft 470 kts 203°
2026-04-27 19:24 11.22382 -52.20360 40003 ft 470 kts 203°
2026-04-27 19:25 11.16403 -52.23061 40003 ft 469 kts 203°
2026-04-27 19:25 11.10426 -52.25760 40005 ft 470 kts 203°
2026-04-27 19:26 11.04451 -52.28456 40011 ft 470 kts 203°
2026-04-27 19:26 10.98472 -52.31153 40005 ft 470 kts 203°
2026-04-27 19:27 10.92499 -52.33847 40002 ft 470 kts 203°
2026-04-27 19:27 10.86516 -52.36543 40005 ft 470 kts 203°
2026-04-27 19:28 10.80536 -52.39237 40001 ft 470 kts 203°
2026-04-27 19:28 10.74550 -52.41933 40004 ft 470 kts 203°
2026-04-27 19:29 10.68569 -52.44625 40001 ft 471 kts 203°
2026-04-27 19:29 10.62581 -52.47319 39999 ft 471 kts 203°
2026-04-27 19:30 10.56587 -52.50015 39997 ft 471 kts 202°
2026-04-27 19:30 10.50594 -52.52708 39992 ft 471 kts 203°
2026-04-27 19:31 10.44597 -52.55403 40001 ft 471 kts 203°
2026-04-27 19:31 10.38645 -52.58077 39996 ft 471 kts 203°
2026-04-27 19:32 10.32651 -52.60768 39996 ft 471 kts 203°
2026-04-27 19:32 10.26653 -52.63460 39995 ft 471 kts 203°
2026-04-27 19:33 10.20662 -52.66148 39996 ft 471 kts 203°
2026-04-27 19:33 10.14659 -52.68840 39996 ft 471 kts 203°
2026-04-27 19:34 10.08663 -52.71527 39999 ft 472 kts 203°
2026-04-27 19:34 10.02657 -52.74217 39998 ft 471 kts 202°
2026-04-27 19:35 9.96665 -52.76901 39991 ft 471 kts 202°
2026-04-27 19:35 9.90662 -52.79588 39994 ft 471 kts 202°
2026-04-27 19:36 9.84662 -52.82272 39993 ft 471 kts 202°
2026-04-27 19:36 9.78658 -52.84958 39994 ft 471 kts 203°
2026-04-27 19:37 9.72660 -52.87640 39993 ft 472 kts 202°
2026-04-27 19:37 9.66654 -52.90326 39991 ft 472 kts 202°
2026-04-27 19:38 9.60649 -52.93008 39990 ft 471 kts 202°
2026-04-27 19:38 9.54656 -52.95685 39990 ft 470 kts 202°
2026-04-27 19:39 9.48708 -52.98340 39992 ft 471 kts 202°
2026-04-27 19:39 9.42726 -53.01038 39993 ft 471 kts 204°
2026-04-27 19:40 9.36881 -53.04036 39990 ft 471 kts 206°
2026-04-27 19:40 9.31074 -53.07128 39990 ft 471 kts 206°
2026-04-27 19:41 9.25247 -53.10178 39987 ft 471 kts 206°
2026-04-27 19:41 9.19399 -53.13197 39989 ft 471 kts 206°
2026-04-27 19:42 9.13558 -53.16202 39988 ft 471 kts 206°
2026-04-27 19:42 9.07715 -53.19207 39984 ft 471 kts 206°
2026-04-27 19:43 9.01870 -53.22213 39981 ft 471 kts 205°
2026-04-27 19:43 8.96019 -53.25223 39984 ft 471 kts 206°
2026-04-27 19:44 8.90176 -53.28226 39982 ft 472 kts 205°
2026-04-27 19:44 8.84325 -53.31234 39982 ft 472 kts 206°
2026-04-27 19:45 8.78475 -53.34240 39987 ft 472 kts 206°
2026-04-27 19:45 8.72621 -53.37247 39981 ft 472 kts 205°
2026-04-27 19:46 8.66771 -53.40250 39985 ft 471 kts 206°
2026-04-27 19:46 8.60916 -53.43255 39983 ft 471 kts 205°
2026-04-27 19:47 8.55105 -53.46237 39982 ft 472 kts 206°
2026-04-27 19:47 8.49256 -53.49237 39983 ft 472 kts 205°
2026-04-27 19:48 8.43408 -53.52235 39984 ft 471 kts 205°
2026-04-27 19:48 8.37561 -53.55232 39977 ft 471 kts 205°
2026-04-27 19:49 8.31713 -53.58229 39976 ft 471 kts 205°
2026-04-27 19:49 8.25872 -53.61220 39978 ft 471 kts 206°
2026-04-27 19:50 8.20029 -53.64212 39978 ft 471 kts 205°
2026-04-27 19:50 8.14190 -53.67201 39976 ft 470 kts 206°
2026-04-27 19:51 8.08351 -53.70189 39980 ft 470 kts 206°
2026-04-27 19:51 8.02513 -53.73175 39975 ft 470 kts 205°
2026-04-27 19:52 7.96677 -53.76159 39978 ft 471 kts 206°
2026-04-27 19:52 7.90833 -53.79147 39977 ft 471 kts 205°
2026-04-27 19:53 7.82067 -53.83626 39973 ft 471 kts 206°
2026-04-27 19:53 7.76225 -53.86610 39972 ft 471 kts 205°
2026-04-27 19:54 7.70389 -53.89590 39971 ft 471 kts 205°
2026-04-27 19:54 7.64546 -53.92573 39971 ft 470 kts 205°
2026-04-27 19:55 7.58700 -53.95556 39970 ft 470 kts 205°
2026-04-27 19:55 7.52863 -53.98534 39973 ft 470 kts 206°
2026-04-27 19:56 7.47042 -54.01549 39972 ft 471 kts 207°
2026-04-27 19:56 7.41356 -54.04768 39970 ft 472 kts 208°
2026-04-27 19:57 7.35683 -54.08033 39965 ft 471 kts 208°
2026-04-27 19:57 7.32830 -54.09661 39784 ft 470 kts 208°
2026-04-27 19:57 7.30042 -54.11243 39610 ft 463 kts 208°
2026-04-27 19:58 7.27253 -54.12819 39259 ft 459 kts 207°
2026-04-27 19:58 7.24457 -54.14394 38702 ft 462 kts 207°
2026-04-27 19:58 7.21647 -54.15974 38086 ft 463 kts 207°
2026-04-27 19:58 7.18832 -54.17557 37527 ft 463 kts 207°
2026-04-27 19:59 7.16025 -54.19136 36980 ft 463 kts 207°
2026-04-27 19:59 7.13206 -54.20722 36404 ft 464 kts 207°
2026-04-27 19:59 7.10383 -54.22310 35810 ft 465 kts 207°
2026-04-27 19:59 7.07552 -54.23902 35200 ft 468 kts 207°
2026-04-27 20:00 7.04705 -54.25503 34534 ft 471 kts 207°
2026-04-27 20:00 7.01836 -54.27116 33841 ft 474 kts 207°
2026-04-27 20:00 6.98942 -54.28744 33090 ft 477 kts 207°
2026-04-27 20:00 6.96035 -54.30378 32355 ft 479 kts 207°
2026-04-27 20:01 6.93120 -54.32018 31614 ft 482 kts 206°
2026-04-27 20:01 6.90194 -54.33663 31051 ft 481 kts 206°
2026-04-27 20:01 6.87285 -54.35300 30551 ft 477 kts 206°
2026-04-27 20:01 6.84391 -54.36928 30041 ft 475 kts 206°
2026-04-27 20:02 6.81521 -54.38542 29485 ft 471 kts 206°
2026-04-27 20:02 6.78669 -54.40146 28947 ft 467 kts 206°
2026-04-27 20:02 6.75845 -54.41733 28430 ft 464 kts 206°
2026-04-27 20:02 6.73039 -54.43309 27894 ft 460 kts 206°
2026-04-27 20:03 6.70252 -54.44874 27386 ft 457 kts 206°
2026-04-27 20:03 6.67484 -54.46429 26875 ft 454 kts 206°
2026-04-27 20:03 6.64742 -54.47969 26379 ft 450 kts 206°
2026-04-27 20:03 6.62045 -54.49482 25857 ft 448 kts 206°
2026-04-27 20:04 6.59339 -54.51001 25346 ft 446 kts 206°
2026-04-27 20:04 6.56637 -54.52518 24837 ft 443 kts 206°
2026-04-27 20:04 6.53970 -54.54014 24341 ft 441 kts 206°
2026-04-27 20:04 6.52197 -54.55009 23988 ft 439 kts 206°
2026-04-27 20:05 6.48638 -54.57006 23266 ft 437 kts 206°
2026-04-27 20:05 6.45988 -54.58492 22764 ft 434 kts 206°
2026-04-27 20:05 6.43364 -54.59963 22246 ft 430 kts 206°
2026-04-27 20:05 6.40760 -54.61424 21749 ft 427 kts 206°
2026-04-27 20:06 6.38174 -54.62874 21241 ft 424 kts 206°
2026-04-27 20:06 6.35632 -54.64299 20757 ft 421 kts 206°
2026-04-27 20:06 6.33083 -54.65728 20256 ft 418 kts 207°
2026-04-27 20:06 6.30567 -54.67138 19779 ft 416 kts 207°
2026-04-27 20:07 6.28049 -54.68549 19291 ft 413 kts 207°
2026-04-27 20:07 6.25615 -54.69914 18829 ft 411 kts 207°
2026-04-27 20:07 6.23122 -54.71310 18343 ft 409 kts 207°
2026-04-27 20:07 6.20639 -54.72702 17833 ft 407 kts 207°
2026-04-27 20:08 6.18173 -54.74084 17331 ft 404 kts 207°
2026-04-27 20:08 6.15733 -54.75452 16844 ft 400 kts 207°
2026-04-27 20:08 6.13308 -54.76811 16369 ft 397 kts 207°
2026-04-27 20:08 6.10903 -54.78159 15889 ft 394 kts 207°
2026-04-27 20:09 6.08514 -54.79496 15421 ft 392 kts 207°
2026-04-27 20:09 6.06139 -54.80827 14928 ft 390 kts 207°
2026-04-27 20:09 6.04573 -54.81703 14619 ft 388 kts 207°
2026-04-27 20:09 6.01425 -54.83466 13982 ft 386 kts 207°
2026-04-27 20:10 5.99887 -54.84360 13620 ft 386 kts 209°
2026-04-27 20:10 5.97608 -54.85784 13059 ft 386 kts 211°
2026-04-27 20:10 5.95343 -54.87214 12568 ft 383 kts 210°
2026-04-27 20:10 5.93095 -54.88624 12104 ft 379 kts 210°
2026-04-27 20:11 5.90870 -54.90014 11648 ft 375 kts 210°
2026-04-27 20:11 5.88663 -54.91388 11197 ft 372 kts 210°
2026-04-27 20:11 5.86517 -54.92721 10751 ft 368 kts 210°
2026-04-27 20:11 5.84353 -54.94064 10398 ft 362 kts 210°
2026-04-27 20:12 5.82253 -54.95369 10273 ft 349 kts 209°
2026-04-27 20:12 5.80229 -54.96626 10153 ft 337 kts 209°
2026-04-27 20:12 5.78267 -54.97842 10007 ft 327 kts 209°
2026-04-27 20:12 5.76359 -54.99026 9856 ft 317 kts 209°
2026-04-27 20:13 5.74506 -55.00175 9657 ft 310 kts 209°
2026-04-27 20:13 5.72695 -55.01296 9409 ft 305 kts 209°
2026-04-27 20:13 5.70897 -55.02409 9117 ft 302 kts 209°
2026-04-27 20:13 5.69115 -55.03513 8794 ft 299 kts 209°
2026-04-27 20:14 5.67414 -55.04566 8336 ft 297 kts 209°
2026-04-27 20:14 5.65653 -55.05657 7853 ft 296 kts 209°
2026-04-27 20:14 5.63904 -55.06740 7436 ft 293 kts 209°
2026-04-27 20:14 5.62180 -55.07808 7023 ft 289 kts 209°
2026-04-27 20:15 5.60484 -55.08859 6663 ft 284 kts 209°
2026-04-27 20:15 5.58815 -55.09892 6337 ft 280 kts 209°
2026-04-27 20:15 5.57160 -55.10916 6002 ft 279 kts 209°
2026-04-27 20:15 5.55510 -55.11938 5691 ft 278 kts 209°
2026-04-27 20:16 5.53861 -55.12958 5363 ft 278 kts 209°
2026-04-27 20:16 5.52219 -55.13976 5045 ft 277 kts 208°
2026-04-27 20:16 5.50582 -55.14989 4717 ft 276 kts 209°
2026-04-27 20:16 5.48952 -55.15999 4401 ft 274 kts 209°
2026-04-27 20:17 5.47392 -55.17070 4070 ft 275 kts 219°
2026-04-27 20:17 5.46308 -55.18641 3725 ft 278 kts 250°
2026-04-27 20:17 5.46163 -55.20555 3410 ft 276 kts 283°
2026-04-27 20:17 5.46816 -55.22338 3186 ft 269 kts 297°
2026-04-27 20:18 5.47613 -55.24004 3058 ft 261 kts 298°
2026-04-27 20:18 5.48388 -55.25616 2942 ft 252 kts 297°
2026-04-27 20:18 5.49131 -55.27177 2811 ft 243 kts 297°
2026-04-27 20:18 5.49789 -55.28661 2629 ft 230 kts 290°
2026-04-27 20:19 5.49986 -55.30192 2427 ft 215 kts 264°
2026-04-27 20:19 5.49511 -55.31549 2242 ft 200 kts 235°
2026-04-27 20:19 5.48576 -55.32487 2043 ft 184 kts 208°
2026-04-27 20:19 5.47447 -55.32940 1989 ft 171 kts 187°
2026-04-27 20:20 5.46299 -55.32849 1991 ft 163 kts 153°
2026-04-27 20:20 5.45624 -55.32043 2009 ft 150 kts 108°
2026-04-27 20:20 5.45348 -55.31055 1995 ft 145 kts 97°
2026-04-27 20:20 5.45266 -55.30071 1922 ft 142 kts 89°
2026-04-27 20:21 5.45264 -55.29076 1726 ft 143 kts 88°
2026-04-27 20:21 5.45253 -55.28083 1532 ft 142 kts 89°
2026-04-27 20:21 5.45239 -55.27094 1364 ft 141 kts 88°
2026-04-27 20:21 5.45227 -55.26102 1148 ft 142 kts 87°
2026-04-27 20:22 5.45247 -55.25136 958 ft 138 kts 86°
2026-04-27 20:22 5.45268 -55.24164 793 ft 140 kts 87°
2026-04-27 20:22 5.45254 -55.23173 652 ft 145 kts 89°
2026-04-27 20:22 5.45263 -55.22179 419 ft 139 kts 83°
2026-04-27 20:23 5.45272 -55.21195 286 ft 143 kts 85°
2026-04-27 20:23 5.45276 -55.20215 85 ft 139 kts 85°
2026-04-27 20:23 5.45286 -55.19358 63 ft 99 kts 89°
2026-04-27 20:23 5.45290 -55.18846 57 ft 55 kts 90°
2026-04-27 20:24 5.45289 -55.18490 57 ft 47 kts 89°
2026-04-27 20:24 5.45293 -55.18183 64 ft 41 kts 89°
2026-04-27 20:24 5.45294 -55.17917 66 ft 36 kts 89°
2026-04-27 20:24 5.45297 -55.17677 62 ft 33 kts 90°
2026-04-27 20:25 5.45301 -55.17502 63 ft 14 kts 75°
2026-04-27 20:25 5.45367 -55.17426 58 ft 16 kts 44°
2026-04-27 20:25 5.45448 -55.17343 61 ft 17 kts 56°
2026-04-27 20:25 5.45447 -55.17236 63 ft 16 kts 126°
2026-04-27 20:26 5.45341 -55.17220 63 ft 17 kts 193°
2026-04-27 20:26 5.45297 -55.17296 57 ft 13 kts 268°
2026-04-27 20:26 5.45298 -55.17383 59 ft 12 kts 271°
2026-04-27 20:26 5.45299 -55.17468 60 ft 12 kts 269°
2026-04-27 20:27 5.45296 -55.17563 61 ft 17 kts 269°
2026-04-27 20:27 5.45294 -55.17707 63 ft 25 kts 269°
2026-04-27 20:27 5.45293 -55.17902 70 ft 31 kts 270°
2026-04-27 20:27 5.45292 -55.18139 66 ft 37 kts 269°
2026-04-27 20:28 5.45291 -55.18398 63 ft 38 kts 270°
2026-04-27 20:28 5.45289 -55.18660 55 ft 38 kts 270°
2026-04-27 20:28 5.45287 -55.18922 58 ft 37 kts 269°
2026-04-27 20:28 5.45285 -55.19089 59 ft 36 kts 269°
2026-04-27 20:29 5.45283 -55.19388 63 ft 29 kts 270°
2026-04-27 20:29 5.45283 -55.19582 63 ft 27 kts 270°
2026-04-27 20:29 5.45299 -55.19714 60 ft 15 kts 314°
2026-04-27 20:29 5.45384 -55.19730 69 ft 11 kts 358°
2026-04-27 20:30 5.45432 -55.19743 66 ft 6 kts 317°
2026-04-27 20:30 5.45446 -55.19787 65 ft 6 kts 276°
2026-04-27 20:30 5.45446 -55.19813 67 ft 2 kts 271°
2026-04-27 20:30 5.45446 -55.19834 67 ft 4 kts 269°
2026-04-27 20:31 5.45459 -55.19861 56 ft 5 kts 320°
2026-04-27 20:31 5.45496 -55.19871 59 ft 4 kts
2026-04-27 20:31 5.45508 -55.19858 59 ft 1 kts 54°
2026-04-27 20:31 5.45510 -55.19848 60 ft 1 kts 79°
2026-04-27 20:32 5.45510 -55.19838 62 ft 2 kts 84°
2026-04-27 20:32 5.45511 -55.19826 61 ft 2 kts 85°
2026-04-27 20:32 5.45512 -55.19820 60 ft 0 kts 85°